GW0353 Weather Reports


Display with metric or nautical units.
time (UTC)temp
F
wind
direction
speed
MPH
gust
MPH
rain 1hr
in
rain 24hr
in
rain mn
in
humidity
%
barometer
mb
20260831181058 70 153 6.0 16.0 0.00 0.00 0.00 31 1022.4
20260831180559 70 110 5.0 17.0 0.00 0.00 0.00 32 1022.4
20260831180109 70 26 8.0 17.0 0.00 0.00 0.00 31 1022.3
20260831175600 72 60 5.0 14.0 0.00 0.00 0.00 30 1022.3
20260831175058 72 276 2.0 5.0 0.00 0.00 0.00 31 1022.4
20260831174639 72 0 1.0 4.0 0.00 0.00 0.00 29 1022.3
20260831174058 72 352 1.0 4.0 0.00 0.00 0.00 30 1022.4
20260831173558 71 349 1.0 4.0 0.00 0.00 0.00 30 1022.4
20260831173105 70 311 1.0 4.0 0.00 0.00 0.00 30 1022.4
20260831172558 70 56 1.0 4.0 0.00 0.00 0.00 32 1022.6
20260831172058 69 306 2.0 5.0 0.00 0.00 0.00 34 1022.6
20260831171604 69 74 0.0 5.0 0.00 0.00 0.00 35 1022.6
20260831171058 70 51 0.0 2.0 0.00 0.00 0.00 33 1022.5
20260831170558 69 244 0.0 3.0 0.00 0.00 0.00 34 1022.6
20260831170107 67 290 0.0 3.0 0.00 0.00 0.00 39 1022.5
20260831165559 66 44 0.0 4.0 0.00 0.00 0.00 41 1022.5
20260831165058 65 53 2.0 4.0 0.00 0.00 0.00 44 1022.6
20260831164605 65 42 1.0 3.0 0.00 0.00 0.00 42 1022.6
20260831164100 65 0 1.0 4.0 0.00 0.00 0.00 41 1022.8
20260831163558 64 52 2.0 4.0 0.00 0.00 0.00 45 1022.8
20260831163107 63 53 1.0 4.0 0.00 0.00 0.00 42 1022.8
20260831162559 63 53 1.0 4.0 0.00 0.00 0.00 42 1022.9
20260831162058 63 43 2.0 5.0 0.00 0.00 0.00 47 1022.9
20260831161608 62 34 2.0 5.0 0.00 0.00 0.00 47 1022.9
20260831161058 63 45 1.0 3.0 0.00 0.00 0.00 44 1022.9
20260831160558 62 52 0.0 3.0 0.00 0.00 0.00 47 1022.8
20260831160106 61 0 1.0 3.0 0.00 0.00 0.00 45 1022.9
20260831155601 60 47 0.0 3.0 0.00 0.00 0.00 45 1022.9
20260831155058 59 38 2.0 3.0 0.00 0.00 0.00 55 1022.9
20260831154627 58 0 0.0 2.0 0.00 0.00 0.00 58 1022.8
20260831154057 58 71 0.0 1.0 0.00 0.00 0.00 60 1022.8
20260831153601 57 0 0.0 1.0 0.00 0.00 0.00 61 1022.9
20260831153118 56 0 0.0 1.0 0.00 0.00 0.00 63 1023.0
20260831152558 54 95 0.0 1.0 0.00 0.00 0.00 66 1023.0
20260831152058 53 0 0.0 1.0 0.00 0.00 0.00 66 1022.9
20260831151613 53 86 0.0 1.0 0.00 0.00 0.00 69 1022.9
20260831151059 52 0 0.0 1.0 0.00 0.00 0.00 68 1022.9
20260831150559 51 0 0.0 1.0 0.00 0.00 0.00 71 1022.9
20260831150106 51 0 0.0 1.0 0.00 0.00 0.00 71 1022.9
20260831145559 51 0 0.0 0.0 0.00 0.00 0.00 72 1022.9
20260831145058 50 0 0.0 1.0 0.00 0.00 0.00 74 1022.9
20260831144605 48 0 0.0 1.0 0.00 0.00 0.00 76 1022.9
20260831144058 47 0 0.0 0.0 0.00 0.00 0.00 74 1023.0
20260831143558 46 0 0.0 1.0 0.00 0.00 0.00 76 1022.8
20260831143103 44 0 0.0 1.0 0.00 0.00 0.00 80 1022.8
20260831142558 42 0 0.0 1.0 0.00 0.00 0.00 82 1022.8
20260831142059 41 0 0.0 0.0 0.00 0.00 0.00 81 1022.8
20260831141606 42 0 0.0 0.0 0.00 0.00 0.00 81 1022.9
20260831141057 42 0 0.0 0.0 0.00 0.00 0.00 80 1022.9
20260831140558 42 0 0.0 1.0 0.00 0.00 0.00 80 1022.8
20260831140106 42 0 0.0 1.0 0.00 0.00 0.00 80 1022.7
20260831135559 42 0 0.0 1.0 0.00 0.00 0.00 80 1022.6
20260831135058 42 187 0.0 1.0 0.00 0.00 0.00 79 1022.6
20260831134614 42 0 0.0 1.0 0.00 0.00 0.00 79 1022.6
20260831134057 42 0 0.0 1.0 0.00 0.00 0.00 78 1022.6
20260831133557 42 0 0.0 0.0 0.00 0.00 0.00 79 1022.6
20260831133107 42 0 0.0 0.0 0.00 0.00 0.00 80 1022.6
20260831132557 42 0 0.0 1.0 0.00 0.00 0.00 80 1022.5
20260831132058 42 188 0.0 1.0 0.00 0.00 0.00 79 1022.5
20260831131601 42 174 0.0 1.0 0.00 0.00 0.00 79 1022.5
20260831131058 42 0 0.0 0.0 0.00 0.00 0.00 78 1022.6
20260831130558 42 0 0.0 0.0 0.00 0.00 0.00 77 1022.4
20260831130109 43 0 0.0 0.0 0.00 0.00 0.00 77 1022.4
20260831125558 43 0 0.0 0.0 0.00 0.00 0.00 77 1022.4
20260831125058 43 0 0.0 0.0 0.00 0.00 0.00 80 1022.4
20260831124608 42 0 0.0 0.0 0.00 0.00 0.00 78 1022.4
20260831124057 43 0 0.0 0.0 0.00 0.00 0.00 76 1022.5
20260831123558 43 0 0.0 0.0 0.00 0.00 0.00 75 1022.4
20260831123105 43 0 0.0 0.0 0.00 0.00 0.00 76 1022.4
20260831122601 44 0 0.0 1.0 0.00 0.00 0.00 76 1022.4
20260831122058 43 0 0.0 2.0 0.00 0.00 0.00 77 1022.4
20260831121632 43 0 0.0 2.0 0.00 0.00 0.00 76 1022.4
20260831121058 44 0 0.0 1.0 0.00 0.00 0.00 75 1022.5
20260831120601 44 0 0.0 1.0 0.00 0.00 0.00 76 1022.5
20260831120111 44 0 0.0 2.0 0.00 0.00 0.00 77 1022.6
20260831115557 43 0 0.0 2.0 0.00 0.00 0.00 76 1022.6
20260831115101 44 0 0.0 2.0 0.00 0.00 0.00 74 1022.6
20260831114605 44 0 0.0 1.0 0.00 0.00 0.00 75 1022.8
20260831114057 44 0 0.0 1.0 0.00 0.00 0.00 75 1022.6
20260831113557 44 0 0.0 1.0 0.00 0.00 0.00 75 1022.6
20260831113109 44 174 0.0 1.0 0.00 0.00 0.00 75 1022.7
20260831112558 44 0 0.0 1.0 0.00 0.00 0.00 76 1022.6
20260831112058 44 0 0.0 1.0 0.00 0.00 0.00 75 1022.7
20260831111604 44 0 0.0 0.0 0.00 0.00 0.00 76 1022.7
20260831111058 44 0 0.0 0.0 0.00 0.00 0.00 75 1022.7
20260831110558 45 0 0.0 0.0 0.00 0.00 0.00 77 1022.7
20260831110107 45 0 0.0 0.0 0.00 0.00 0.00 77 1022.6
20260831105622 45 0 0.0 0.0 0.00 0.00 0.00 77 1022.7
20260831105058 45 0 0.0 0.0 0.00 0.00 0.00 76 1022.8
20260831104605 45 0 0.0 0.0 0.00 0.00 0.00 77 1022.8
20260831104058 45 0 0.0 0.0 0.00 0.00 0.00 75 1022.8
20260831103559 46 0 0.0 0.0 0.00 0.00 0.00 74 1022.7
20260831103111 46 0 0.0 2.0 0.00 0.00 0.00 74 1022.8
20260831102557 46 174 0.0 2.0 0.00 0.00 0.00 73 1022.9
20260831102058 47 169 0.0 0.0 0.00 0.00 0.00 72 1022.9
20260831101604 47 0 0.0 0.0 0.00 0.00 0.00 73 1023.0
20260831101058 47 0 0.0 1.0 0.00 0.00 0.00 71 1022.9
20260831100556 47 0 0.0 2.0 0.00 0.00 0.00 69 1023.0
20260831100110 47 0 0.0 2.0 0.00 0.00 0.00 68 1022.9
20260831095557 47 0 0.0 2.0 0.00 0.00 0.00 67 1022.9
20260831095057 47 172 0.0 1.0 0.00 0.00 0.00 67 1022.9
20260831094608 47 0 0.0 1.0 0.00 0.00 0.00 66 1022.9
20260831094058 47 167 0.0 1.0 0.00 0.00 0.00 67 1022.9
20260831093557 47 0 0.0 1.0 0.00 0.00 0.00 66 1023.0
20260831093154 47 0 0.0 0.0 0.00 0.00 0.00 68 1023.0
20260831092558 47 0 0.0 0.0 0.00 0.00 0.00 67 1022.9
20260831092058 47 0 0.0 1.0 0.00 0.00 0.00 65 1022.9
20260831091606 48 0 0.0 1.0 0.00 0.00 0.00 63 1022.9
20260831091058 48 0 0.0 1.0 0.00 0.00 0.00 62 1022.9
20260831090558 49 0 0.0 0.0 0.00 0.00 0.00 64 1022.8
20260831090108 49 0 0.0 1.0 0.00 0.00 0.00 63 1022.8
20260831085558 49 0 0.0 2.0 0.00 0.00 0.00 63 1022.9
20260831085058 49 172 0.0 2.0 0.00 0.00 0.00 62 1023.1
20260831084652 49 170 0.0 1.0 0.00 0.00 0.00 62 1023.1
20260831084057 49 207 0.0 0.0 0.00 0.00 0.00 62 1023.2
20260831083557 50 0 0.0 0.0 0.00 0.00 0.00 61 1023.1
20260831083109 50 0 0.0 0.0 0.00 0.00 0.00 61 1023.1
20260831082601 50 0 0.0 0.0 0.00 0.00 0.00 61 1023.3
20260831082057 50 0 0.0 0.0 0.00 0.00 0.00 60 1023.2
20260831081610 50 0 0.0 3.0 0.00 0.00 0.00 60 1023.2
20260831081058 50 0 0.0 3.0 0.00 0.00 0.00 61 1023.4
20260831080559 50 255 0.0 3.0 0.00 0.00 0.00 60 1023.5
20260831080125 50 0 0.0 0.0 0.00 0.00 0.00 59 1023.3
20260831075558 50 0 0.0 3.0 0.00 0.00 0.00 58 1023.2
20260831075057 50 0 0.0 3.0 0.00 0.00 0.00 57 1023.3
20260831074605 50 143 0.0 3.0 0.00 0.00 0.00 56 1023.3
20260831074057 50 0 1.0 3.0 0.00 0.00 0.00 56 1023.5
20260831073557 50 176 0.0 2.0 0.00 0.00 0.00 58 1023.5
20260831073108 50 168 0.0 1.0 0.00 0.00 0.00 56 1023.5
20260831072600 50 0 0.0 1.0 0.00 0.00 0.00 58 1023.5
20260831072058 50 0 0.0 1.0 0.00 0.00 0.00 57 1023.5
20260831071612 50 0 0.0 1.0 0.00 0.00 0.00 58 1023.4
20260831071057 51 0 0.0 1.0 0.00 0.00 0.00 57 1023.5
20260831070557 51 0 0.0 1.0 0.00 0.00 0.00 58 1023.4
20260831070118 51 0 0.0 0.0 0.00 0.00 0.00 57 1023.4
20260831065557 51 0 0.0 2.0 0.00 0.00 0.00 57 1023.4
20260831065058 51 0 0.0 3.0 0.00 0.00 0.00 58 1023.5
20260831064606 50 170 1.0 3.0 0.00 0.00 0.00 57 1023.5
20260831064059 51 0 1.0 3.0 0.00 0.00 0.00 53 1023.4
20260831063558 52 257 1.0 3.0 0.00 0.00 0.00 54 1023.5
20260831063114 52 172 1.0 2.0 0.00 0.00 0.00 55 1023.5
20260831062559 52 167 0.0 2.0 0.00 0.00 0.00 53 1023.5
20260831062058 52 0 0.0 1.0 0.00 0.00 0.00 53 1023.4
20260831061605 52 0 0.0 2.0 0.00 0.00 0.00 52 1023.5
20260831061058 53 226 1.0 2.0 0.00 0.00 0.00 49 1023.2
20260831060557 53 164 0.0 2.0 0.00 0.00 0.00 48 1023.3
20260831060127 54 167 0.0 1.0 0.00 0.00 0.00 48 1023.1
20260831055602 54 0 0.0 1.0 0.00 0.00 0.00 46 1023.1
20260831055057 54 0 0.0 2.0 0.00 0.00 0.00 46 1022.9
20260831054608 54 0 0.0 2.0 0.00 0.00 0.00 46 1023.1
20260831054058 55 0 0.0 2.0 0.00 0.00 0.00 47 1023.0
20260831053557 55 0 0.0 0.0 0.00 0.00 0.00 45 1023.0
20260831053107 55 0 0.0 0.0 0.00 0.00 0.00 45 1023.0
20260831052558 55 0 0.0 1.0 0.00 0.00 0.00 46 1022.9
20260831052101 56 0 0.0 1.0 0.00 0.00 0.00 44 1023.0
20260831051604 56 0 0.0 1.0 0.00 0.00 0.00 43 1023.0
20260831051057 56 0 0.0 4.0 0.00 0.00 0.00 44 1023.1
20260831050557 56 176 0.0 4.0 0.00 0.00 0.00 44 1023.1
20260831050118 57 217 2.0 4.0 0.00 0.00 0.00 43 1023.2
20260831045558 57 231 0.0 2.0 0.00 0.00 0.00 43 1023.1
20260831045058 57 187 0.0 1.0 0.00 0.00 0.00 42 1023.2
20260831044610 57 179 0.0 1.0 0.00 0.00 0.00 43 1023.2
20260831044058 57 0 0.0 1.0 0.00 0.00 0.00 43 1023.3
20260831043559 57 0 0.0 1.0 0.00 0.00 0.00 43 1023.3
20260831043105 57 0 0.0 2.0 0.00 0.00 0.00 43 1023.3
20260831042600 58 0 0.0 2.0 0.00 0.00 0.00 44 1023.2
20260831042058 59 0 0.0 2.0 0.00 0.00 0.00 43 1023.3
20260831041607 59 0 0.0 1.0 0.00 0.00 0.00 41 1023.2
20260831041059 60 0 0.0 1.0 0.00 0.00 0.00 40 1023.1
20260831040559 60 0 0.0 1.0 0.00 0.00 0.00 40 1023.1
20260831040107 61 0 0.0 2.0 0.00 0.00 0.00 39 1023.1
20260831035557 61 176 0.0 2.0 0.00 0.00 0.00 40 1023.1
20260831035059 61 169 0.0 1.0 0.00 0.00 0.00 39 1023.1
20260831034613 63 0 0.0 5.0 0.00 0.00 0.00 38 1023.1
20260831034057 63 0 0.0 5.0 0.00 0.00 0.00 37 1022.9
20260831033601 64 0 2.0 5.0 0.00 0.00 0.00 36 1022.9
20260831033106 64 0 2.0 5.0 0.00 0.00 0.00 36 1022.7
20260831032558 65 53 3.0 9.0 0.00 0.00 0.00 36 1022.6
20260831032058 65 316 3.0 9.0 0.00 0.00 0.00 36 1022.5
20260831031607 65 56 2.0 7.0 0.00 0.00 0.00 37 1022.5
20260831031100 65 117 2.0 7.0 0.00 0.00 0.00 37 1022.4
20260831030600 65 68 4.0 8.0 0.00 0.00 0.00 37 1022.3
20260831030107 65 157 4.0 8.0 0.00 0.00 0.00 37 1022.2
20260831025558 65 160 2.0 6.0 0.00 0.00 0.00 37 1022.3
20260831025057 65 105 1.0 7.0 0.00 0.00 0.00 38 1021.9
20260831024605 66 20 3.0 7.0 0.00 0.00 0.00 37 1022.0
20260831024102 66 58 0.0 8.0 0.00 0.00 0.00 40 1021.8
20260831023557 65 0 3.0 8.0 0.00 0.00 0.00 39 1021.7
20260831023106 66 118 0.0 2.0 0.00 0.00 0.00 40 1021.7
20260831022558 67 48 0.0 2.0 0.00 0.00 0.00 38 1021.6
20260831022058 67 0 0.0 1.0 0.00 0.00 0.00 36 1021.6
20260831021609 67 0 0.0 0.0 0.00 0.00 0.00 34 1021.5
20260831021058 67 0 0.0 1.0 0.00 0.00 0.00 34 1021.5
20260831020557 68 0 0.0 2.0 0.00 0.00 0.00 35 1021.5
20260831020108 69 158 0.0 2.0 0.00 0.00 0.00 35 1021.4
20260831015557 70 0 0.0 1.0 0.00 0.00 0.00 33 1021.4
20260831015057 71 0 0.0 1.0 0.00 0.00 0.00 32 1021.5
20260831014623 71 0 0.0 1.0 0.00 0.00 0.00 30 1021.5
20260831014058 73 0 0.0 1.0 0.00 0.00 0.00 29 1021.5
20260831013558 73 0 0.0 3.0 0.00 0.00 0.00 23 1021.5
20260831013109 73 0 0.0 5.0 0.00 0.00 0.00 23 1021.5
20260831012558 73 0 2.0 5.0 0.00 0.00 0.00 23 1021.5
20260831012058 73 159 1.0 5.0 0.00 0.00 0.00 23 1021.6
20260831011609 74 243 1.0 5.0 0.00 0.00 0.00 23 1021.5
20260831011057 74 144 1.0 5.0 0.00 0.00 0.00 23 1021.7
20260831010601 74 163 3.0 6.0 0.00 0.00 0.00 23 1021.7
20260831010109 74 0 3.0 7.0 0.00 0.00 0.00 23 1021.6
20260831005557 73 152 2.0 7.0 0.00 0.00 0.00 23 1021.7
20260831005058 73 161 3.0 7.0 0.00 0.00 0.00 23 1021.7
20260831004627 73 184 3.0 7.0 0.00 0.00 0.00 24 1021.7
20260831004056 73 162 4.0 6.0 0.00 0.00 0.00 24 1021.7
20260831003600 73 148 3.0 5.0 0.00 0.00 0.00 24 1021.8
20260831003112 73 148 3.0 5.0 0.00 0.00 0.00 24 1021.7
20260831002557 73 120 1.0 6.0 0.00 0.00 0.00 24 1021.6
20260831002100 73 135 2.0 7.0 0.00 0.00 0.00 24 1021.8
20260831001633 73 124 3.0 7.0 0.00 0.00 0.00 24 1021.8
20260831001058 73 117 3.0 7.0 0.00 0.00 0.00 24 1021.7
20260831000558 73 155 4.0 10.0 0.00 0.00 0.00 23 1021.8
20260831000115 73 89 5.0 10.0 0.00 0.00 0.00 23 1021.7
20260830235559 73 138 6.0 10.0 0.00 0.00 0.00 23 1021.8
20260830235100 74 164 3.0 7.0 0.00 0.00 0.00 23 1021.9
20260830234613 74 133 2.0 7.0 0.00 0.00 0.00 23 1021.7
20260830234058 74 174 2.0 7.0 0.00 0.00 0.00 22 1021.8
20260830233558 74 143 4.0 7.0 0.00 0.00 0.00 22 1021.8
20260830233132 74 120 3.0 7.0 0.00 0.00 0.00 23 1021.8
20260830232558 74 155 1.0 7.0 0.00 0.00 0.00 21 1022.0
20260830232058 74 87 4.0 7.0 0.00 0.00 0.00 21 1021.9
20260830231614 74 159 2.0 8.0 0.00 0.00 0.00 22 1022.0
20260830231101 75 125 3.0 9.0 0.00 0.00 0.00 21 1021.9
20260830230559 75 139 1.0 13.0 0.00 0.00 0.00 22 1022.0
20260830230133 76 136 5.0 13.0 0.00 0.00 0.00 21 1022.0
20260830225557 76 130 3.0 9.0 0.00 0.00 0.00 22 1022.2
20260830225058 76 282 1.0 11.0 0.00 0.00 0.00 20 1022.2
20260830224615 75 63 3.0 11.0 0.00 0.00 0.00 21 1022.2
20260830224058 76 54 3.0 11.0 0.00 0.00 0.00 21 1022.3
20260830223558 75 101 0.0 10.0 0.00 0.00 0.00 22 1022.4
20260830223112 75 68 6.0 10.0 0.00 0.00 0.00 19 1022.4
20260830222558 75 61 4.0 10.0 0.00 0.00 0.00 21 1022.4
20260830222059 75 41 0.0 13.0 0.00 0.00 0.00 21 1022.6
20260830221607 75 42 4.0 13.0 0.00 0.00 0.00 20 1022.5
20260830221058 75 85 5.0 13.0 0.00 0.00 0.00 21 1022.6
20260830220558 75 107 7.0 13.0 0.00 0.00 0.00 20 1022.6
20260830220107 75 162 4.0 10.0 0.00 0.00 0.00 20 1022.6
20260830215557 76 149 4.0 14.0 0.00 0.00 0.00 21 1022.7
20260830215057 76 113 2.0 14.0 0.00 0.00 0.00 21 1022.8
20260830214607 76 77 5.0 12.0 0.00 0.00 0.00 21 1022.8
20260830214059 76 63 5.0 13.0 0.00 0.00 0.00 21 1022.7
20260830213558 76 174 6.0 15.0 0.00 0.00 0.00 20 1022.8
20260830213103 75 203 6.0 15.0 0.00 0.00 0.00 20 1022.9
20260830212558 75 25 7.0 15.0 0.00 0.00 0.00 21 1022.9
20260830212058 75 55 6.0 12.0 0.00 0.00 0.00 22 1022.9
20260830211605 74 126 5.0 14.0 0.00 0.00 0.00 21 1022.9
20260830211057 74 94 6.0 14.0 0.00 0.00 0.00 21 1023.0
20260830210558 74 84 5.0 12.0 0.00 0.00 0.00 22 1022.9
20260830210109 74 134 5.0 12.0 0.00 0.00 0.00 22 1023.1
20260830205557 74 87 5.0 17.0 0.00 0.00 0.00 21 1023.1
20260830205058 74 120 6.0 17.0 0.00 0.00 0.00 21 1023.1
20260830204606 74 139 8.0 17.0 0.00 0.00 0.00 22 1023.1
20260830204058 74 70 4.0 12.0 0.00 0.00 0.00 22 1023.1
20260830203558 74 117 5.0 12.0 0.00 0.00 0.00 22 1023.3
20260830203110 74 139 6.0 11.0 0.00 0.00 0.00 23 1023.3
20260830202601 74 186 3.0 14.0 0.00 0.00 0.00 23 1023.2
20260830202058 74 108 4.0 14.0 0.00 0.00 0.00 23 1023.3
20260830201609 74 53 5.0 11.0 0.00 0.00 0.00 22 1023.5
20260830201057 74 77 4.0 16.0 0.00 0.00 0.00 23 1023.6
20260830200558 73 136 4.0 16.0 0.00 0.00 0.00 24 1023.5
20260830200106 73 129 5.0 15.0 0.00 0.00 0.00 22 1023.5
20260830195557 73 68 6.0 16.0 0.00 0.00 0.00 23 1023.7
20260830195058 73 189 6.0 16.0 0.00 0.00 0.00 24 1023.6
20260830194616 73 110 5.0 14.0 0.00 0.00 0.00 24 1023.8
20260830194058 73 169 6.0 17.0 0.00 0.00 0.00 23 1023.7
20260830193601 73 172 7.0 17.0 0.00 0.00 0.00 22 1023.7
20260830193109 74 167 4.0 14.0 0.00 0.00 0.00 22 1023.7
20260830192559 73 113 3.0 12.0 0.00 0.00 0.00 24 1023.7
20260830192058 73 77 5.0 12.0 0.00 0.00 0.00 24 1023.8
20260830191610 72 118 3.0 12.0 0.00 0.00 0.00 24 1023.8
20260830191057 72 110 5.0 17.0 0.00 0.00 0.00 22 1023.9
20260830190559 73 108 6.0 17.0 0.00 0.00 0.00 24 1023.9
20260830190106 73 75 5.0 17.0 0.00 0.00 0.00 22 1023.9
20260830185602 73 81 5.0 14.0 0.00 0.00 0.00 23 1024.0
20260830185057 73 125 4.0 17.0 0.00 0.00 0.00 23 1024.0
20260830184602 73 58 3.0 17.0 0.00 0.00 0.00 22 1024.1
20260830184057 74 52 5.0 17.0 0.00 0.00 0.00 22 1024.0
20260830183600 74 273 1.0 7.0 0.00 0.00 0.00 23 1024.1
20260830183110 75 6 1.0 6.0 0.00 0.00 0.00 24 1024.1
20260830182600 75 0 1.0 6.0 0.00 0.00 0.00 23 1024.2
20260830182058 74 274 2.0 6.0 0.00 0.00 0.00 23 1024.2
20260830181606 73 266 1.0 7.0 0.00 0.00 0.00 24 1024.4